When you browse on this site, cookies collect data to enhance your experience and personalize the content and advertising you see.
Visit our Privacy Policy to learn more. By continuing to use the site, you agree to this use of cookies and data.
EN

Hourly Weather Kiustendil

Today, 10 July, Friday

Time Temperature Precipitation Wind Pressure Humidity
00:00 +10°C° 0 mm 1 mps 627 mmHg 79%
01:00 +10°C° 0 mm 1 mps 627 mmHg 81%
02:00 +9°C° 0 mm 1 mps 627 mmHg 82%
03:00 +9°C° 0 mm 1 mps 627 mmHg 83%
04:00 +9°C° 0 mm 1 mps 627 mmHg 84%
05:00 +10°C° 0 mm 1 mps 627 mmHg 79%
06:00 +12°C° 0 mm 1 mps 628 mmHg 74%
07:00 +14°C° 0 mm 1 mps 629 mmHg 68%
08:00 +16°C° 0 mm 1 mps 629 mmHg 63%
09:00 +18°C° 0 mm 1 mps 630 mmHg 57%
10:00 +19°C° 0 mm 2 mps 630 mmHg 52%
11:00 +20°C° 0 mm 2 mps 630 mmHg 49%
12:00 +21°C° 0 mm 2 mps 630 mmHg 47%
13:00 +21°C° 0 mm 2 mps 630 mmHg 44%
14:00 +21°C° 0 mm 2 mps 630 mmHg 45%
15:00 +21°C° 0 mm 2 mps 630 mmHg 47%
16:00 +21°C° 0 mm 2 mps 630 mmHg 48%
17:00 +19°C° 0 mm 2 mps 629 mmHg 55%
18:00 +17°C° 0 mm 2 mps 628 mmHg 61%
19:00 +14°C° 0 mm 1 mps 627 mmHg 67%
20:00 +14°C° 0 mm 1 mps 627 mmHg 68%
21:00 +13°C° 0 mm 1 mps 627 mmHg 69%
22:00 +12°C° 0 mm 1 mps 627 mmHg 69%
23:00 +12°C° 0 mm 1 mps 627 mmHg 71%

Tomorrow, 11 July, Saturday

Time Temperature Precipitation Wind Pressure Humidity
00:00 +11°C° 0 mm 1 mps 626 mmHg 73%
01:00 +11°C° 0 mm 1 mps 626 mmHg 75%
02:00 +10°C° 0 mm 1 mps 626 mmHg 76%
03:00 +10°C° 0 mm 1 mps 626 mmHg 77%
04:00 +10°C° 0 mm 1 mps 626 mmHg 79%
05:00 +12°C° 0 mm 1 mps 626 mmHg 74%
06:00 +13°C° 0 mm 1 mps 627 mmHg 70%
07:00 +15°C° 0 mm 1 mps 628 mmHg 66%
08:00 +18°C° 0 mm 1 mps 628 mmHg 62%
09:00 +19°C° 0 mm 1 mps 629 mmHg 58%
10:00 +21°C° 0 mm 1 mps 629 mmHg 54%
11:00 +22°C° 0.1 mm 1 mps 629 mmHg 52%
12:00 +23°C° 0.1 mm 1 mps 629 mmHg 50%
13:00 +23°C° 0.1 mm 1 mps 629 mmHg 48%
14:00 +23°C° 0.1 mm 1 mps 628 mmHg 49%
15:00 +23°C° 0.1 mm 2 mps 628 mmHg 50%
16:00 +23°C° 0.1 mm 2 mps 628 mmHg 51%
17:00 +20°C° 0.1 mm 2 mps 627 mmHg 58%
18:00 +18°C° 0.1 mm 2 mps 626 mmHg 64%
19:00 +16°C° 0.1 mm 1 mps 626 mmHg 70%
20:00 +15°C° 0 mm 1 mps 626 mmHg 72%
21:00 +14°C° 0 mm 1 mps 625 mmHg 74%
22:00 +13°C° 0 mm 1 mps 625 mmHg 75%
23:00 +13°C° 0 mm 1 mps 625 mmHg 77%

Day after tomorrow, 12 July, Sunday

Time Temperature Precipitation Wind Pressure Humidity
00:00 +12°C° 0 mm 1 mps 625 mmHg 79%
01:00 +11°C° 0 mm 0 mps 624 mmHg 80%
02:00 +11°C° 0 mm 1 mps 624 mmHg 81%
03:00 +11°C° 0 mm 1 mps 624 mmHg 82%
04:00 +11°C° 0 mm 1 mps 624 mmHg 83%
05:00 +12°C° 0 mm 1 mps 625 mmHg 80%
06:00 +14°C° 0 mm 2 mps 626 mmHg 76%
07:00 +15°C° 0 mm 2 mps 627 mmHg 73%
08:00 +16°C° 0 mm 2 mps 628 mmHg 68%
09:00 +17°C° 0 mm 3 mps 628 mmHg 64%
10:00 +19°C° 0 mm 3 mps 629 mmHg 59%
11:00 +19°C° 0 mm 3 mps 629 mmHg 58%
12:00 +19°C° 0 mm 3 mps 629 mmHg 57%
13:00 +20°C° 0 mm 4 mps 629 mmHg 55%
14:00 +19°C° 0 mm 4 mps 628 mmHg 57%
15:00 +19°C° 0 mm 4 mps 628 mmHg 58%
16:00 +18°C° 0 mm 4 mps 628 mmHg 60%
17:00 +16°C° 0 mm 3 mps 627 mmHg 67%
18:00 +13°C° 0 mm 3 mps 627 mmHg 74%
19:00 +12°C° 0 mm 2 mps 626 mmHg 80%
20:00 +10°C° 0 mm 2 mps 626 mmHg 83%
21:00 +8°C° 0 mm 2 mps 626 mmHg 85%
22:00 +7°C° 0 mm 2 mps 626 mmHg 88%
23:00 +7°C° 0 mm 2 mps 625 mmHg 88%

13 July, Monday

Time Temperature Precipitation Wind Pressure Humidity
00:00 +6°C° 0 mm 2 mps 625 mmHg 88%
01:00 +5°C° 0 mm 2 mps 625 mmHg 89%
02:00 +5°C° 0 mm 2 mps 624 mmHg 89%
03:00 +4°C° 0 mm 2 mps 624 mmHg 89%
04:00 +3°C° 0 mm 2 mps 624 mmHg 89%
05:00 +5°C° 0 mm 2 mps 625 mmHg 81%
06:00 +6°C° 0 mm 2 mps 625 mmHg 73%
07:00 +8°C° 0 mm 2 mps 626 mmHg 65%
08:00 +10°C° 0 mm 3 mps 626 mmHg 60%
09:00 +11°C° 0 mm 3 mps 627 mmHg 54%
10:00 +13°C° 0 mm 3 mps 628 mmHg 48%
11:00 +14°C° 0 mm 3 mps 628 mmHg 46%
12:00 +16°C° 0 mm 3 mps 628 mmHg 45%
13:00 +17°C° 0 mm 4 mps 628 mmHg 43%
14:00 +17°C° 0 mm 4 mps 627 mmHg 45%
15:00 +16°C° 0 mm 3 mps 627 mmHg 47%
16:00 +16°C° 0 mm 3 mps 627 mmHg 49%
17:00 +13°C° 0 mm 3 mps 626 mmHg 58%
18:00 +12°C° 0 mm 2 mps 626 mmHg 67%
19:00 +9°C° 0 mm 2 mps 625 mmHg 76%
20:00 +8°C° 0 mm 2 mps 625 mmHg 78%
21:00 +7°C° 0 mm 2 mps 625 mmHg 81%
22:00 +7°C° 0 mm 1 mps 625 mmHg 84%
23:00 +7°C° 0 mm 1 mps 624 mmHg 84%

14 July, Tuesday

Time Temperature Precipitation Wind Pressure Humidity
00:00 +6°C° 0 mm 1 mps 624 mmHg 85%
01:00 +6°C° 0 mm 1 mps 624 mmHg 86%
02:00 +6°C° 0 mm 1 mps 624 mmHg 86%
03:00 +5°C° 0 mm 1 mps 624 mmHg 87%
04:00 +5°C° 0 mm 1 mps 624 mmHg 87%
05:00 +7°C° 0 mm 1 mps 625 mmHg 81%
06:00 +9°C° 0 mm 1 mps 625 mmHg 75%
07:00 +11°C° 0 mm 1 mps 626 mmHg 69%
08:00 +12°C° 0 mm 1 mps 627 mmHg 65%
09:00 +14°C° 0 mm 1 mps 627 mmHg 61%
10:00 +16°C° 0 mm 1 mps 628 mmHg 57%
11:00 +16°C° 0 mm 1 mps 628 mmHg 56%
12:00 +18°C° 0 mm 1 mps 628 mmHg 55%
13:00 +18°C° 0 mm 1 mps 628 mmHg 53%
14:00 +18°C° 0.1 mm 1 mps 627 mmHg 54%
15:00 +18°C° 0.1 mm 1 mps 627 mmHg 54%
16:00 +18°C° 0.1 mm 1 mps 627 mmHg 54%
17:00 +15°C° 0 mm 1 mps 626 mmHg 60%
18:00 +14°C° 0 mm 1 mps 626 mmHg 67%
19:00 +12°C° 0 mm 1 mps 625 mmHg 73%
20:00 +11°C° 0 mm 1 mps 625 mmHg 76%
21:00 +10°C° 0 mm 1 mps 625 mmHg 78%
22:00 +10°C° 0 mm 1 mps 625 mmHg 80%
23:00 +9°C° 0 mm 1 mps 625 mmHg 81%

15 July, Wednesday

Time Temperature Precipitation Wind Pressure Humidity
00:00 +9°C° 0 mm 1 mps 625 mmHg 83%
01:00 +8°C° 0 mm 1 mps 625 mmHg 84%
02:00 +8°C° 0 mm 1 mps 625 mmHg 85%
03:00 +8°C° 0 mm 1 mps 625 mmHg 86%
04:00 +7°C° 0 mm 1 mps 625 mmHg 86%
05:00 +9°C° 0 mm 1 mps 626 mmHg 81%
06:00 +11°C° 0 mm 1 mps 627 mmHg 75%
07:00 +13°C° 0 mm 1 mps 628 mmHg 69%
08:00 +15°C° 0 mm 1 mps 628 mmHg 64%
09:00 +18°C° 0 mm 1 mps 629 mmHg 60%
10:00 +19°C° 0 mm 1 mps 629 mmHg 55%
11:00 +20°C° 0.1 mm 1 mps 629 mmHg 54%
12:00 +20°C° 0.1 mm 1 mps 629 mmHg 53%
13:00 +20°C° 0.1 mm 1 mps 629 mmHg 52%
14:00 +20°C° 0.1 mm 1 mps 629 mmHg 52%
15:00 +20°C° 0.1 mm 1 mps 628 mmHg 52%
16:00 +20°C° 0.1 mm 1 mps 628 mmHg 52%
17:00 +18°C° 0 mm 1 mps 628 mmHg 59%
18:00 +16°C° 0 mm 1 mps 627 mmHg 65%
19:00 +14°C° 0 mm 1 mps 626 mmHg 72%
20:00 +13°C° 0 mm 1 mps 626 mmHg 73%
21:00 +12°C° 0 mm 1 mps 626 mmHg 74%
22:00 +12°C° 0 mm 1 mps 626 mmHg 75%
23:00 +11°C° 0 mm 1 mps 626 mmHg 76%
Show more